Simultaneous Nadir Overpasses (SNOs) Predictions

Prediction of SNOs between METOP-B and NOAA-19 Satellite Orbit:

Table of predicted SNOs for the next 14.0 days since TLE Epoch: 5/27/2016
Index Date (METOP-B) Time (METOP-B) Lat,Lon (METOP-B) SZA (METOP-B ) Date (NOAA-19) Time (NOAA-19) Lat,Lon (NOAA-19) SZA (NOAA-19 ) Distance(km) Time Diff (sec)
1 06/04/2016 18:35:59 76.28, -97.78 53.67 06/04/2016 18:34:48 76.29, -99.32 53.67 40.71 71
2 06/04/2016 19:26:45 -76.07, 68.83 126.55 06/04/2016 19:25:43 -76.07, 68.74 126.56 2.50 62
3 06/04/2016 20:17:26 76.03,-123.98 53.41 06/04/2016 20:16:45 76.06,-124.00 53.44 3.79 41
4 06/04/2016 21:08:07 -76.06, 43.43 126.58 06/04/2016 21:07:44 -76.02, 43.41 126.61 3.63 23
5 06/04/2016 21:58:48 76.01,-149.38 53.38 06/04/2016 21:58:46 76.02,-149.33 53.38 1.48 2
6
